Weather History for KLOR - July, 2013

Change the Weather History Date:

Monday, July 29, 2013

  Actual Average (KDHN) Record (KDHN)
Temperature  
Mean Temperature 82 °F 82 °F  
Max Temperature 91 °F 92 °F 98 °F (1952)
Min Temperature 73 °F 72 °F 68 °F (1944)
Cooling Degree Days 17 17  
Month to date cooling degree days 492  
Year to date cooling degree days 1349  
Since 1 June cooling degree days 936  
Growing Degree Days 32 (Base 50)    
Moisture  
Dew Point 74 °F    
Average Humidity 87    
Maximum Humidity 100    
Minimum Humidity 55    
Precipitation  
Precipitation 0.00 in 0.19 in 1.09 in (1966)
Month to date precipitation 5.56  
Year to date precipitation 33.52  
Sea Level Pressure  
Sea Level Pressure 30.06 in    
Wind  
Wind Speed 0 mph (ESE)    
Max Wind Speed 6 mph    
Max Gust Speed -    
Visibility 6 miles    
Events Fog , Thunderstorm    
T = Trace of Precipitation, MM = Missing Value Source: NWS Daily Summary

Daily Weather History Graph

Daily Weather History Graph

Search for Another Location

Airport or City:

Trip Planner

Search our weather history database for the weather conditions in past years. The results will help you decide how hot, cold, wet, or windy it might be!

Date:

Astronomy

Jul. 29, 2013 Rise Set
Actual Time 5:57 AM CDT 7:40 PM CDT
Civil Twilight 5:31 AM CDT 8:07 PM CDT
Nautical Twilight 4:59 AM CDT 8:39 PM CDT
Astronomical Twilight 4:25 AM CDT 9:12 PM CDT
Moon No Moon Rise 1:05 PM CDT (7/29)
Length of Visible Light 14h 36m
Length of Day
13h 42m
Waning Gibbous, 50% of the Moon is Illuminated
Jul 29
Waning Gibbous
Jul 29
Last Quarter
Aug 6
New
Aug 14
First Quarter
Aug 20
Full

Hourly Weather History & Observations

Time (CDT) Temp. Heat Index Dew Point Humidity Pressure Visibility Wind Dir Wind Speed Gust Speed Precip Events Conditions
12:22 AM 75.2 °F - 75.2 °F 100% 30.02 in 7.0 mi Calm Calm - N/A   Mostly Cloudy
12:53 AM 75.9 °F - 75.0 °F 97% 30.00 in 4.0 mi Calm Calm - N/A   Scattered Clouds
1:01 AM 75.2 °F - 75.2 °F 100% 30.01 in 1.8 mi Calm Calm - N/A   Scattered Clouds
1:10 AM 75.2 °F - 73.4 °F 94% 30.01 in 4.0 mi Calm Calm - N/A   Partly Cloudy
1:28 AM 75.2 °F - 73.4 °F 94% 30.01 in 5.0 mi Calm Calm - N/A   Partly Cloudy
1:37 AM 75.2 °F - 73.4 °F 94% 30.00 in 2.0 mi Calm Calm - N/A   Mostly Cloudy
1:44 AM 75.2 °F - 73.4 °F 94% 30.00 in 1.5 mi Calm Calm - N/A   Mostly Cloudy
1:53 AM 73.9 °F - 73.9 °F 100% 29.99 in 0.8 mi Calm Calm - N/A   Mist
2:02 AM 73.4 °F - 73.4 °F 100% 30.01 in 1.0 mi Calm Calm - N/A   Mist
2:09 AM 73.4 °F - 73.4 °F 100% 30.00 in 3.0 mi Calm Calm - N/A   Overcast
2:16 AM 73.4 °F - 73.4 °F 100% 30.01 in 2.5 mi Calm Calm - N/A   Mostly Cloudy
2:20 AM 73.4 °F - 73.4 °F 100% 30.01 in 3.0 mi Calm Calm - N/A   Mostly Cloudy
2:30 AM 73.4 °F - 73.4 °F 100% 30.01 in 2.0 mi Calm Calm - N/A   Mostly Cloudy
2:41 AM 75.2 °F - 73.4 °F 94% 30.01 in 1.2 mi Calm Calm - N/A   Mostly Cloudy
2:53 AM 75.0 °F - 73.9 °F 96% 30.00 in 1.2 mi Calm Calm - N/A   Overcast
3:02 AM 75.2 °F - 73.4 °F 94% 30.01 in 3.0 mi Calm Calm - N/A   Overcast
3:15 AM 75.2 °F - 73.4 °F 94% 30.01 in 6.0 mi Calm Calm - N/A   Overcast
3:53 AM 75.9 °F - 75.0 °F 97% 30.01 in 7.0 mi Calm Calm - N/A   Overcast
4:25 AM 75.2 °F - 75.2 °F 100% 30.03 in 4.0 mi Calm Calm - N/A   Overcast
4:38 AM 75.2 °F - 75.2 °F 100% 30.03 in 1.8 mi Calm Calm - N/A   Overcast
4:53 AM 75.9 °F - 75.0 °F 97% 30.02 in 1.0 mi Calm Calm - N/A   Overcast
5:53 AM 75.9 °F - 75.0 °F 97% 30.04 in 1.2 mi Calm Calm - N/A   Overcast
6:02 AM 75.2 °F - 75.2 °F 100% 30.05 in 2.0 mi Calm Calm - N/A   Overcast
6:20 AM 75.2 °F - 75.2 °F 100% 30.06 in 0.8 mi Calm Calm - N/A   Overcast
6:53 AM 75.9 °F - 75.0 °F 97% 30.06 in 0.5 mi Calm Calm - N/A Fog Fog
7:08 AM 75.2 °F - 75.2 °F 100% 30.08 in 1.2 mi Calm Calm - N/A   Overcast
7:25 AM 75.2 °F - 75.2 °F 100% 30.08 in 3.0 mi Calm Calm - N/A   Overcast
7:53 AM 75.9 °F - 75.9 °F 100% 30.08 in 5.0 mi NNE 3.5 mph - N/A   Overcast
8:35 AM 78.8 °F - 75.2 °F 89% 30.09 in 10.0 mi Calm Calm - N/A   Overcast
8:53 AM 79.0 °F - 75.0 °F 88% 30.09 in 10.0 mi Calm Calm - N/A   Overcast
9:27 AM 80.6 °F 86.2 °F 75.2 °F 84% 30.10 in 10.0 mi Calm Calm - N/A   Mostly Cloudy
9:34 AM 82.4 °F 89.5 °F 75.2 °F 79% 30.10 in 10.0 mi Calm Calm - N/A   Overcast
9:53 AM 84.0 °F 92.6 °F 75.9 °F 76% 30.09 in 10.0 mi ESE 3.5 mph - N/A   Mostly Cloudy
10:03 AM 84.2 °F 92.3 °F 75.2 °F 74% 30.10 in 10.0 mi Calm Calm - N/A   Overcast
10:13 AM 82.4 °F 89.5 °F 75.2 °F 79% 30.10 in 10.0 mi East 3.5 mph - N/A   Scattered Clouds
10:53 AM 84.9 °F 93.3 °F 75.0 °F 72% 30.10 in 10.0 mi Calm Calm - N/A   Partly Cloudy
11:50 AM 84.2 °F 90.9 °F 73.4 °F 70% 30.10 in 10.0 mi Calm Calm - N/A   Mostly Cloudy
11:53 AM 84.9 °F 92.1 °F 73.9 °F 69% 30.09 in 10.0 mi Calm Calm - N/A   Overcast
12:09 PM 87.8 °F 95.6 °F 73.4 °F 62% 30.10 in 10.0 mi Calm Calm - N/A   Mostly Cloudy
12:53 PM 90.0 °F 97.9 °F 73.0 °F 57% 30.09 in 10.0 mi Variable 3.5 mph - N/A   Overcast
1:53 PM 89.1 °F 97.0 °F 73.0 °F 59% 30.07 in 10.0 mi Calm Calm - N/A   Partly Cloudy
2:53 PM 90.0 °F 100.2 °F 75.0 °F 61% 30.06 in 10.0 mi Calm Calm - N/A   Scattered Clouds
3:53 PM 91.0 °F 99.3 °F 73.0 °F 55% 30.05 in 10.0 mi NE 5.8 mph - N/A   Scattered Clouds
4:53 PM 90.0 °F 97.9 °F 73.0 °F 57% 30.05 in 10.0 mi Calm Calm - N/A   Partly Cloudy
5:53 PM 91.0 °F 100.4 °F 73.9 °F 57% 30.04 in 10.0 mi North 3.5 mph - N/A   Clear
6:53 PM 89.1 °F 99.1 °F 75.0 °F 63% 30.06 in 10.0 mi North 3.5 mph - N/A   Clear
7:51 PM 80.6 °F 85.4 °F 73.4 °F 79% 30.10 in 10.0 mi South 4.6 mph - N/A Thunderstorm Mostly Cloudy
7:53 PM 81.0 °F 86.2 °F 73.9 °F 79% 30.09 in 10.0 mi SSE 4.6 mph - N/A Thunderstorm Mostly Cloudy
8:07 PM 80.6 °F 85.4 °F 73.4 °F 79% 30.11 in 10.0 mi South 5.8 mph - N/A   Mostly Cloudy
8:53 PM 80.1 °F 84.5 °F 73.9 °F 81% 30.11 in 10.0 mi South 3.5 mph - N/A   Partly Cloudy
9:53 PM 78.1 °F - 75.0 °F 90% 30.13 in 10.0 mi Calm Calm - N/A   Clear
10:53 PM 77.0 °F - 75.0 °F 94% 30.13 in 10.0 mi Calm Calm - N/A   Partly Cloudy
11:53 PM 77.0 °F - 75.0 °F 94% 30.13 in 10.0 mi Calm Calm - N/A   Partly Cloudy